Погода Грозный

Погода Грозный : погода сейчас, прогноз погоды и архив. Всё, что Вы хотите узнать о погоде Грозный!

Поиск расширенной информации на нашем сайте:

Другие новости

Новости СМИ2

Главная страница сайта

Новости сайта

03.07.2017

Напоминаем, что на нашем специализированном сайте Метеоцентр.Азия вы можете получить высокодетализированные автоматические прогнозы погоды по пунктам России, СНГ и мира в авиационном формате (включающие направление и скорость ветра, видимость, явления погоды, количество и форму облачности, нижнюю и верхнюю границу облачности).

Рекомендуем: Наружные отопительные котлы - газовые котлы будерус.

Погода Грозный - сегодня

Время (UTC), дата Ветер
(°,м/с) 
Видим.   Явления Облачность Т
(°С)
Тd
(°С)
f(%) Тe
(°С)
Pmin
(гПа)
dP
(гПа)
Po
(мм)
O2
(г/м3)
Тmin Tmax R s Состояние
почвы
12 09.12.17 260 (З) 20000 м    3/0 средняя 
[Ac lent]
+4 +0.6 78 +5  1024.9  -0.8  744  295           
15 09.12.17 110 (В) 10 км    ясно 
-1 -1.6 96 1028.5  0.4  744  301    +4.3       
18 09.12.17 110 (В) 10 км    3/0 средняя 
[Ac lent]
-1.2 -1.8 96 -1  1024.6  -0.4  744  301           
21 09.12.17 100 (В) 10 км    3/0 средняя 
[Ac lent]
-1.5 -2.1 96 -1  1023.9  -0.7  744  302           
00 10.12.17 110 (В) 10 км    ясно 
-2.5 -3.1 96 -2  1023.6  -0.2  743  303           
03 10.12.17 110 (В) 10 км    ясно 
-3.5 -4.2 95 -3  1022.5  -0.5  743  304    -3.6    сухой снег
50-90% 
06 10.12.17 200 (Ю) 0500 м  туман  ?/?  
-3.9 -4.4 96 -3  1023  -0.4  743  304  -4.5         
09 10.12.17 250 (З) 20000 м  {туман}  ясно 
+1.2 -2.6 76 +2  1021  -1.6  742  298           
12 10.12.17 050 (СВ) 20000 м    ясно 
+2.8 -1.1 75 +2  1019.2  -1.4  741  295           
15 10.12.17 230 (ЮЗ) 10 км    10/10 600 м 
[Sc]
+0.5 -0.9 90 +1  1019.7  0.2  741  298    +3       
18 10.12.17 110 (В) 40  4000 м  дымка  10/10 300 м 
[St]
+0.5 -0.1 96 -9  1017.8  -1.9  739  297           
21 10.12.17 тихо ()   0500 м  туман  ?/?  
-1.3 -1.6 98 -1  1016.9  -0.9  739  299           
00 11.12.17 240 (ЮЗ) 0500 м  туман  ?/?  
-0.4 -0.7 98 1017.1  0.5  739  298           
03 11.12.17 270 (З) 0500 м  туман  ?/?  
+0.6 +0.3 98 +1  1019.3  1.8  740  298    -1.3    сухой снег
50-90% 
06 11.12.17 260 (З) 10 км  в посл. час туман  10/10 600 м 
[St]
+1.3 +0.8 96 +1  1025.4  6.1  745  299           
09 11.12.17 230 (ЮЗ) 20000 м    10/10 1000 м 
[Sc]
+3.3 +1 85 +3  1027.4  2.1  746  297           
12 11.12.17 240 (ЮЗ) 10 км    10/10 600 м 
[Sc]
+4.6 +2.1 84 +5  1028.3  1.4  748  296           
15 11.12.17 110 (В) 10 км    10/10 600 м 
[Sc]
+4.2 +3.2 93 +5  1029.2  0.5  748  296    +4.7       
18 11.12.17 110 (В) 10 км    ясно 
+0.4 -0.4 94 +1  1030  0.3  748  301           
21 11.12.17 070 (В) 10 км    10/3 600 м средняя 
[Sc|Ac As]
+4   1028.5  -1  747             
00 12.12.17 150 (ЮВ) 10 км    10/10 600 м 
[Sc]
+0.4 -0.2 96 +1  1029.1  0.1  747  301           
03 12.12.17 090 (В) 10 км    10/10 600 м 
[Sc]
+1.5 +1 96 +2  1030  0.1  740  296    +0.3    мокрый или
старый снег
10-40% 
06 12.12.17 260 (З) 20000 м    10/10 1000 м 
[Sc]
+1.9 +0.8 92 +3  1028.6  -0.4  747  299           
09 12.12.17 120 (ЮВ) 20000 м    9/9 1000 м 
[Sc]
+4.6 +0.4 74 +4  1027.1  -1.1  746  296           
12 12.12.17 070 (В) 20000 м    5/0 средняя 
[Ac lent]
+5 +1.5 78 +5  1026.7  -0.4  746  295           
Время (UTC), дата Ветер
(°,м/с) 
Видим.   Явления Облачность Т
(°С)
Тd
(°С)
f(%) Тe
(°С)
Pmin
(гПа)
dP
(гПа)
Po
(мм)
O2
(г/м3)
Тmin Tmax R s Состояние
почвы

Для получения пояснительной информации подведите курсор к названию столбца.

ПОГОДА Грозный - архив

Всё, что Вы хотите узнать о погоде Грозный - удобно и подробно!

Выберите нужную дату (начиная с 1 января 2015* года) и нажмите кнопку "Найти".
Будут отображены архивные сводки погоды по пункту Грозный, начиная с указанной даты.


Отображать данные в формате CSV (для использования в таблицах Excel)


Внимание! Наш архив погоды предназначен исключительно для личного некоммерческого использования в познавательных целях. Если Вам необходимы официальные справки о состоянии погоды (для производственных, юридических, коммерческих и т.п. целей), обращайтесь в органы Росгидромета.

*Примечание: данная дата относится к архиву по метеостанциям СССР (Россия, СНГ, Балтия).
Архив по метеостанциям Зарубежной Европы и Азии (кроме Китая) хранится 10 дней, по другим регионам земного шара (Китай, Африка, Америка, Австралия, Океания) - 1 день.

Грозный - район местоположения метеостанции


Название, широта, долгота, высота метеостанции:
Грозный 43.3°ш. 45.7°д. 163 м над ур. моря [Российская Федерация]

Дополнительная информация

В oтличие oт бoльшинства пoгoдных сайтoв мы публикуем пoдрoбную метеoинфoрмацию в детальнoм прoфессиoнальнoм фoрмате.

Характеристики температуры и влажнoсти вoздуха измеряются на высoте 2 м в тени вдали oт зданий и деревьев.
Скoрoсть ветра измеряется на высoте 10 м (на урoвне рoста челoвека скoрoсть ветра ниже в 1.5-2 раза). Если метеoстанция нахoдится в гoрoде или в лесу, тo скoрoсть ветра занижена на 2-4 м/с пo сравнению с oткрытым местoм. Скoрoсть ветра над акватoриями крупных рек и oзёр, а также на вершинах хoлмoв на 2-5 м/с выше, чем в oбычных услoвиях.
Атмoсфернoе давление в разных тoчках местнoсти мoжет значительнo oтличаться oт давления на метеoстанции, в зависимoсти oт услoвий рельефа (при пoдъёме на 10 м давление пoнижается примернo на 1 мм рт.ст.).